Frisco, NC

11:46 AM EST on December 03, 2016 (GMT -0500)
Mitchell

Weather History for KHSE - April, 2013

Change the Weather History Date:

Saturday, April 27, 2013

  Actual Average Record
Temperature  
Mean Temperature 62 °F 62 °F  
Max Temperature 69 °F 69 °F 89 °F (1990)
Min Temperature 54 °F 56 °F 33 °F (1972)
Degree Days  
Heating Degree Days 3 4  
Month to date heating degree days 169 180  
Since 1 July heating degree days 2388 2523  
Cooling Degree Days 0 1  
Month to date cooling degree days 9 18  
Year to date cooling degree days 9 21  
Growing Degree Days 12 (Base 50)    
Moisture  
Dew Point 46 °F    
Average Humidity 59    
Maximum Humidity 83    
Minimum Humidity 35    
Precipitation  
Precipitation 0.00 in 0.11 in 2.12 in (1909)
Month to date precipitation 3.37 3.33  
Year to date precipitation 15.32 17.36  
Snow  
Snow 0.00 in - - ()
Month to date snowfall 0.0  
Since 1 July snowfall 0.0  
Snow Depth 0.00 in    
Sea Level Pressure  
Sea Level Pressure 30.35 in    
Wind  
Wind Speed 7 mph (ENE)    
Max Wind Speed 15 mph    
Max Gust Speed 23 mph    
Visibility 10 miles    
Events      
T = Trace of Precipitation, MM = Missing Value Source: NWS Daily Summary

Daily Weather History Graph

Daily Weather History Graph

Search for Another Location

Airport or City:

Trip Planner

Search our weather history database for the weather conditions in past years. The results will help you decide how hot, cold, wet, or windy it might be!

Date:

Astronomy

Apr. 27, 2013 Rise Set
Actual Time 6:15 AM EDT 7:45 PM EDT
Civil Twilight 5:48 AM EDT 8:12 PM EDT
Nautical Twilight 5:16 AM EDT 8:44 PM EDT
Astronomical Twilight 4:42 AM EDT 9:18 PM EDT
Moon 10:08 PM EDT (4/27) 7:35 AM EDT (4/27)
Length of Visible Light 14h 23m
Length of Day
13h 29m
Waning Gibbous, 95% of the Moon is Illuminated
Apr 27
Waning Gibbous
May 2
Last Quarter
May 9
New
May 18
First Quarter
May 25
Full

Hourly Weather History & Observations

Time (EDT) Temp. Dew Point Humidity Pressure Visibility Wind Dir Wind Speed Gust Speed Precip Events Conditions
12:51 AM 55.0 °F 48.0 °F 77% 30.39 in 10.0 mi ENE 4.6 mph - N/A   Clear
1:51 AM 55.0 °F 48.9 °F 80% 30.36 in 10.0 mi East 5.8 mph - N/A   Clear
2:51 AM 55.0 °F 48.9 °F 80% 30.35 in 10.0 mi ENE 5.8 mph - N/A   Clear
3:51 AM 55.9 °F 48.9 °F 77% 30.35 in 10.0 mi ENE 5.8 mph - N/A   Clear
4:51 AM 55.9 °F 50.0 °F 80% 30.35 in 10.0 mi ENE 4.6 mph - N/A   Clear
5:51 AM 57.0 °F 50.0 °F 77% 30.36 in 10.0 mi NE 4.6 mph - N/A   Clear
6:51 AM 57.0 °F 50.0 °F 77% 30.35 in 10.0 mi ENE 4.6 mph - N/A   Clear
7:51 AM 59.0 °F 51.1 °F 75% 30.37 in 10.0 mi NE 4.6 mph - N/A   Clear
8:51 AM 60.1 °F 50.0 °F 69% 30.38 in 10.0 mi NE 5.8 mph - N/A   Clear
9:51 AM 64.0 °F 48.9 °F 58% 30.38 in 10.0 mi NE 9.2 mph - N/A   Clear
10:51 AM 66.0 °F 46.0 °F 48% 30.39 in 10.0 mi NNE 9.2 mph 16.1 mph N/A   Clear
11:51 AM 66.9 °F 43.0 °F 42% 30.39 in 10.0 mi NE 11.5 mph 19.6 mph N/A   Clear
12:51 PM 69.1 °F 45.0 °F 42% 30.37 in 10.0 mi NE 6.9 mph - N/A   Clear
1:51 PM 68.0 °F 39.9 °F 36% 30.36 in 10.0 mi ENE 11.5 mph 18.4 mph N/A   Clear
2:51 PM 66.9 °F 41.0 °F 39% 30.35 in 10.0 mi ENE 9.2 mph - N/A   Clear
3:51 PM 66.9 °F 44.1 °F 44% 30.33 in 10.0 mi NE 9.2 mph - N/A   Clear
4:51 PM 66.0 °F 43.0 °F 43% 30.33 in 10.0 mi ENE 8.1 mph 16.1 mph N/A   Clear
5:51 PM 64.0 °F 42.1 °F 45% 30.33 in 10.0 mi ENE 10.4 mph 17.3 mph N/A   Clear
6:51 PM 60.1 °F 43.0 °F 53% 30.33 in 10.0 mi NE 5.8 mph - N/A   Clear
7:51 PM 57.9 °F 45.0 °F 62% 30.33 in 10.0 mi ENE 4.6 mph - N/A   Clear
8:51 PM 55.9 °F 45.0 °F 67% 30.33 in 10.0 mi ENE 5.8 mph - N/A   Clear
9:51 PM 55.9 °F 45.0 °F 67% 30.33 in 10.0 mi ENE 5.8 mph - N/A   Clear
10:51 PM 55.0 °F 42.1 °F 62% 30.33 in 10.0 mi ENE 5.8 mph - N/A   Clear
11:51 PM 54.0 °F 42.1 °F 64% 30.32 in 10.0 mi ENE 5.8 mph - N/A   Clear